Content
SEND FEEDBACK

Daily
Averages
Monthly
Summary
United States of America

WOODLAND, CALIFORNIA


Home > North America > United States > California
Elevation: 6 feet     Latitude: 38 41N     Longitude: 121 46W

WEATHER
 
SELECT A DAY
Number of Records: 175,049;   Date Range: 1/1/95 - 7/23/14
 
SHARE

PRINT THIS DATA

[ ← Previous Day ]
WEATHER ALMANAC - JANUARY 31, 2013
[ Next Day → ]
[ °C ]   °F
Weather ElementAverageHighLow
Temperature45.5 °F63 °F (2:53 pm)35.1 °F (5:53 am)
Dewpoint41.3 °F48 °F (4:53 pm)34 °F (4:53 am)
Humidity87.4 %100 % (1:53 am)52 % (3:53 pm)
Barometer30.26 in30.32 in (8:40 am)30.20 in (4:53 pm)
Wind Speed1.3 mph6.9 mph (9:53 pm)
Weather ElementAverage
Visibility5.8 mi
Wind DirectionENE (79.3 °)

Weather ElementTotal
Precipitation---
Heating Degree Days16 (Base 65)
Averaged from 29 records on January 31, 2013
WEATHER CONDITIONS BREAKOUT
WIND DIRECTION BREAKOUT
WEATHER BY HOUR - JANUARY 31, 2013
[ °C ]   °F
Local TimeTemperatureDewpointHumidityBarometerVisibilityWind DirectionWind SpeedGust SpeedPrecipitationEventsConditions
1:53 AM39.0 °F39.0 °F100 %30.30 in4.0 miCalmFogClear
2:53 AM37.4 °F37.4 °F100 %30.29 in4.0 miCalmFogClear
3:00 AM37.4 °F37.4 °F100 %30.29 in0.2 miCalmFogMist
3:17 AM37.4 °F37.4 °F100 %30.28 in4.0 miCalmFogPartly Cloudy
3:53 AM37.0 °F37.0 °F100 %30.28 in1.0 miSW (220°)3.5 mphScattered Clouds
4:53 AM36.0 °F34.0 °F93 %30.28 in3.0 miNW (310°)3.5 mphFogPartly Cloudy
5:17 AM35.6 °F35.6 °F100 %30.29 in0.8 miCalmScattered Clouds
5:53 AM35.1 °F35.1 °F100 %30.29 in1.0 miCalmFogPartly Cloudy
6:53 AM36.0 °F35.1 °F97 %30.30 in0.5 miCalmFogFog
6:59 AM35.6 °F35.6 °F100 %30.30 in0.5 miCalmFogFog
7:53 AM35.1 °F34.0 °F96 %30.31 in0.1 miCalmFogFog
8:40 AM39.2 °F39.2 °F100 %30.32 in0.5 miCalmFogFog
8:53 AM42.1 °F41.0 °F96 %30.32 in1.0 miCalmClear
9:03 AM42.8 °F42.8 °F100 %30.32 in4.0 miCalmClear
9:53 AM50.0 °F46.9 °F89 %30.32 in8.0 miCalmClear
10:53 AM54.0 °F46.9 °F77 %30.31 in9.0 miCalmClear
11:53 AM55.9 °F46.0 °F69 %30.28 in9.0 miCalmClear
12:53 PM61.0 °F46.0 °F58 %30.25 in9.0 miCalmClear
1:53 PM62.1 °F46.0 °F56 %30.23 in10.0 miCalmClear
2:53 PM63.0 °F46.0 °F54 %30.22 in10.0 miNorth (360°)3.5 mphClear
3:53 PM63.0 °F45.0 °F52 %30.21 in10.0 miCalmClear
4:53 PM61.0 °F48.0 °F62 %30.20 in10.0 miENE (60°)3.5 mphClear
5:53 PM53.1 °F46.9 °F80 %30.21 in10.0 miNE (50°)3.5 mphClear
6:53 PM48.0 °F46.0 °F93 %30.20 in10.0 miCalmClear
7:53 PM50.0 °F46.9 °F89 %30.20 in10.0 miCalmClear
8:53 PM44.1 °F43.0 °F96 %30.21 in10.0 miNNW (340°)3.5 mphClear
9:53 PM44.1 °F42.1 °F93 %30.21 in10.0 miNW (320°)6.9 mphClear
10:53 PM43.0 °F41.0 °F93 %30.21 in10.0 miNW (320°)4.6 mphClear
11:53 PM42.1 °F39.9 °F92 %30.21 in10.0 miNW (320°)5.8 mphClear
Hourly data recorded from KSMF, located miles away from Woodland, California







STORIES FROM OUR PARTNERS